| time (UTC) | temp F | wind direction | speed MPH | gust MPH | rain 1hr in | rain 24hr in | rain mn in | humidity % | barometer mb |
| 20260903071533 | 50 | 273 | 0.0 | 2.0 | 0.00 | 0.35 | 0.00 | 87 | 1011.8 |
| 20260903070052 | 49 | 316 | 0.0 | 2.0 | 0.00 | 0.35 | 0.35 | 87 | 1011.8 |
| 20260903064530 | 49 | 103 | 0.0 | 3.0 | 0.01 | 0.35 | 0.35 | 87 | 1011.6 |
| 20260903063030 | 50 | 111 | 1.0 | 3.0 | 0.02 | 0.35 | 0.35 | 86 | 1011.5 |
| 20260903061530 | 50 | 271 | 0.0 | 4.0 | 0.03 | 0.35 | 0.35 | 83 | 1011.7 |
| 20260903060029 | 51 | 82 | 1.0 | 6.0 | 0.04 | 0.35 | 0.35 | 82 | 1011.7 |
| 20260903054536 | 52 | 309 | 1.0 | 5.0 | 0.03 | 0.34 | 0.34 | 78 | 1011.7 |
| 20260903053025 | 52 | 318 | 0.0 | 6.0 | 0.03 | 0.33 | 0.33 | 75 | 1011.3 |
| 20260903051524 | 53 | 84 | 1.0 | 8.0 | 0.03 | 0.32 | 0.32 | 74 | 1011.2 |
| 20260903050027 | 53 | 134 | 1.0 | 5.0 | 0.03 | 0.31 | 0.31 | 76 | 1011.2 |
| 20260903044523 | 52 | 73 | 1.0 | 5.0 | 0.04 | 0.31 | 0.31 | 79 | 1011.2 |
| 20260903043026 | 52 | 74 | 1.0 | 3.0 | 0.03 | 0.30 | 0.30 | 81 | 1011.3 |
| 20260903041524 | 52 | 80 | 0.0 | 3.0 | 0.02 | 0.28 | 0.28 | 84 | 1011.1 |
| 20260903040022 | 51 | 51 | 1.0 | 5.0 | 0.01 | 0.28 | 0.28 | 88 | 1011.0 |
| 20260903034526 | 51 | 84 | 1.0 | 4.0 | 0.00 | 0.27 | 0.27 | 89 | 1010.9 |
| 20260903033021 | 50 | 71 | 0.0 | 2.0 | 0.01 | 0.27 | 0.27 | 90 | 1011.1 |
| 20260903031520 | 50 | 92 | 2.0 | 6.0 | 0.02 | 0.27 | 0.27 | 90 | 1011.0 |
| 20260903030019 | 50 | 119 | 1.0 | 3.0 | 0.02 | 0.27 | 0.27 | 88 | 1011.1 |
| 20260903024521 | 51 | 30 | 0.0 | 4.0 | 0.03 | 0.27 | 0.27 | 87 | 1011.0 |
| 20260903023032 | 51 | 94 | 0.0 | 3.0 | 0.03 | 0.26 | 0.26 | 86 | 1011.3 |
| 20260903021519 | 52 | 286 | 0.0 | 2.0 | 0.02 | 0.25 | 0.25 | 85 | 1011.0 |
| 20260903020017 | 53 | 257 | 2.0 | 11.0 | 0.03 | 0.25 | 0.25 | 82 | 1011.2 |
| 20260903014521 | 55 | 248 | 1.0 | 5.0 | 0.02 | 0.24 | 0.24 | 76 | 1010.8 |
| 20260903013016 | 56 | 212 | 2.0 | 7.0 | 0.02 | 0.23 | 0.23 | 73 | 1010.3 |
| 20260903011522 | 56 | 190 | 5.0 | 9.0 | 0.02 | 0.23 | 0.23 | 72 | 1010.0 |
| 20260903010017 | 57 | 278 | 1.0 | 7.0 | 0.01 | 0.22 | 0.22 | 71 | 1010.0 |
| 20260903004523 | 57 | 277 | 2.0 | 5.0 | 0.01 | 0.22 | 0.22 | 72 | 1009.9 |
| 20260903003014 | 56 | 355 | 1.0 | 4.0 | 0.00 | 0.21 | 0.21 | 76 | 1009.9 |
| 20260903001521 | 56 | 342 | 1.0 | 3.0 | 0.00 | 0.21 | 0.21 | 79 | 1010.0 |
| 20260903000030 | 55 | 104 | 1.0 | 3.0 | 0.01 | 0.21 | 0.21 | 81 | 1009.9 |
| 20260902234513 | 55 | 306 | 0.0 | 2.0 | 0.02 | 0.21 | 0.21 | 84 | 1009.9 |
| 20260902233013 | 55 | 103 | 0.0 | 4.0 | 0.04 | 0.21 | 0.21 | 80 | 1009.9 |
| 20260902231516 | 55 | 38 | 1.0 | 7.0 | 0.05 | 0.21 | 0.21 | 83 | 1009.8 |
| 20260902230011 | 54 | 67 | 2.0 | 8.0 | 0.05 | 0.20 | 0.20 | 82 | 1010.0 |
| 20260902224511 | 55 | 46 | 1.0 | 7.0 | 0.04 | 0.19 | 0.19 | 81 | 1010.0 |
| 20260902223011 | 55 | 46 | 0.0 | 3.0 | 0.03 | 0.17 | 0.17 | 80 | 1009.8 |
| 20260902221516 | 55 | 5 | 0.0 | 3.0 | 0.03 | 0.16 | 0.16 | 79 | 1009.9 |
| 20260902220008 | 54 | 317 | 1.0 | 4.0 | 0.04 | 0.15 | 0.15 | 80 | 1009.9 |
| 20260902214515 | 54 | 74 | 1.0 | 7.0 | 0.05 | 0.15 | 0.15 | 80 | 1009.9 |
| 20260902213009 | 54 | 71 | 2.0 | 5.0 | 0.06 | 0.14 | 0.14 | 78 | 1010.0 |
| 20260902211509 | 54 | 107 | 1.0 | 4.0 | 0.07 | 0.13 | 0.13 | 83 | 1010.1 |
| 20260902210008 | 54 | 84 | 1.0 | 5.0 | 0.07 | 0.11 | 0.11 | 81 | 1010.2 |
| 20260902204508 | 54 | 132 | 0.0 | 4.0 | 0.08 | 0.10 | 0.10 | 79 | 1010.2 |
| 20260902203007 | 54 | 84 | 1.0 | 5.0 | 0.08 | 0.08 | 0.08 | 77 | 1010.3 |
| 20260902201508 | 54 | 101 | 1.0 | 4.0 | 0.06 | 0.06 | 0.06 | 78 | 1010.2 |
| 20260902200006 | 54 | 300 | 1.0 | 5.0 | 0.04 | 0.04 | 0.04 | 77 | 1010.1 |
| 20260902194505 | 54 | 229 | 4.0 | 12.0 | 0.02 | 0.02 | 0.02 | 73 | 1010.3 |
| 20260902193004 | 58 | 122 | 6.0 | 14.0 | 0.00 | 0.00 | 0.00 | 62 | 1010.0 |
| 20260902191505 | 62 | 244 | 5.0 | 18.0 | 0.00 | 0.00 | 0.00 | 47 | 1009.3 |
| 20260902190006 | 62 | 117 | 3.0 | 8.0 | 0.00 | 0.00 | 0.00 | 45 | 1009.2 |
| 20260902184502 | 61 | 284 | 2.0 | 11.0 | 0.00 | 0.00 | 0.00 | 46 | 1009.3 |
| 20260902183006 | 61 | 105 | 2.0 | 11.0 | 0.00 | 0.00 | 0.00 | 47 | 1009.3 |
| 20260902181502 | 61 | 190 | 4.0 | 10.0 | 0.00 | 0.00 | 0.00 | 47 | 1009.6 |
| 20260902180002 | 61 | 209 | 3.0 | 14.0 | 0.00 | 0.00 | 0.00 | 49 | 1009.6 |
| 20260902174505 | 62 | 268 | 4.0 | 13.0 | 0.00 | 0.00 | 0.00 | 47 | 1009.3 |
| 20260902173100 | 62 | 246 | 3.0 | 16.0 | 0.00 | 0.00 | 0.00 | 47 | 1009.3 |
| 20260902171601 | 63 | 240 | 5.0 | 15.0 | 0.00 | 0.00 | 0.00 | 46 | 1009.1 |
| 20260902164601 | 62 | 105 | 3.0 | 11.0 | 0.00 | 0.00 | 0.00 | 54 | 1009.0 |
| 20260902163057 | 63 | 243 | 4.0 | 11.0 | 0.00 | 0.00 | 0.00 | 51 | 1008.8 |
| 20260902161554 | 62 | 22 | 1.0 | 5.0 | 0.00 | 0.00 | 0.00 | 55 | 1009.0 |
| 20260902160051 | 60 | 274 | 2.0 | 6.0 | 0.00 | 0.00 | 0.00 | 59 | 1009.2 |
| 20260902154545 | 58 | 30 | 1.0 | 3.0 | 0.00 | 0.00 | 0.00 | 65 | 1009.6 |
| 20260902153041 | 56 | 345 | 0.0 | 5.0 | 0.00 | 0.00 | 0.00 | 70 | 1009.9 |
| 20260902151539 | 53 | 134 | 0.0 | 2.0 | 0.00 | 0.00 | 0.00 | 77 | 1010.1 |
| 20260902150037 | 52 | 82 | 0.0 | 2.0 | 0.00 | 0.00 | 0.00 | 77 | 1010.2 |
| 20260902144536 | 51 | 90 | 0.0 | 2.0 | 0.00 | 0.00 | 0.00 | 79 | 1010.3 |
| 20260902143039 | 51 | 76 | 0.0 | 0.0 | 0.00 | 0.00 | 0.00 | 81 | 1010.5 |
| 20260902141537 | 50 | 56 | 0.0 | 0.0 | 0.00 | 0.00 | 0.00 | 81 | 1010.4 |
| 20260902140034 | 49 | 120 | 0.0 | 2.0 | 0.00 | 0.00 | 0.00 | 83 | 1010.5 |
| 20260902134533 | 48 | 99 | 0.0 | 2.0 | 0.00 | 0.00 | 0.00 | 85 | 1010.6 |
| 20260902133049 | 47 | 103 | 0.0 | 2.0 | 0.00 | 0.00 | 0.00 | 85 | 1010.7 |
| 20260902131531 | 47 | 132 | 0.0 | 1.0 | 0.00 | 0.00 | 0.00 | 85 | 1010.7 |
| 20260902130030 | 46 | 149 | 0.0 | 0.0 | 0.00 | 0.00 | 0.00 | 87 | 1010.7 |
| 20260902124530 | 46 | 159 | 0.0 | 0.0 | 0.00 | 0.00 | 0.00 | 87 | 1010.8 |
| 20260902123029 | 45 | 159 | 0.0 | 1.0 | 0.00 | 0.00 | 0.00 | 87 | 1010.8 |
| 20260902121528 | 44 | 96 | 0.0 | 2.0 | 0.00 | 0.00 | 0.00 | 88 | 1010.7 |
| 20260902120026 | 44 | 111 | 1.0 | 3.0 | 0.00 | 0.00 | 0.00 | 87 | 1010.7 |
| 20260902114523 | 44 | 115 | 1.0 | 2.0 | 0.00 | 0.00 | 0.00 | 85 | 1010.9 |
| 20260902113021 | 45 | 103 | 0.0 | 3.0 | 0.00 | 0.00 | 0.00 | 85 | 1011.0 |
| 20260902111519 | 45 | 70 | 1.0 | 4.0 | 0.00 | 0.00 | 0.00 | 84 | 1011.1 |
| 20260902110018 | 47 | 98 | 0.0 | 0.0 | 0.00 | 0.00 | 0.00 | 83 | 1011.1 |
| 20260902104516 | 47 | 98 | 0.0 | 0.0 | 0.00 | 0.00 | 0.00 | 82 | 1011.3 |
| 20260902103013 | 48 | 98 | 0.0 | 2.0 | 0.00 | 0.00 | 0.00 | 80 | 1011.2 |
| 20260902101508 | 50 | 104 | 1.0 | 3.0 | 0.00 | 0.00 | 0.00 | 75 | 1011.0 |
| 20260902100004 | 53 | 81 | 0.0 | 0.0 | 0.00 | 0.00 | 0.00 | 73 | 1010.9 |
| 20260902094502 | 53 | 238 | 0.0 | 2.0 | 0.00 | 0.00 | 0.00 | 73 | 1011.0 |
| 20260902093101 | 53 | 255 | 0.0 | 3.0 | 0.00 | 0.00 | 0.00 | 72 | 1011.1 |
| 20260902091609 | 54 | 241 | 0.0 | 3.0 | 0.00 | 0.00 | 0.00 | 71 | 1011.0 |
| 20260902090105 | 54 | 236 | 0.0 | 5.0 | 0.00 | 0.00 | 0.00 | 71 | 1011.2 |
| 20260902084605 | 54 | 287 | 0.0 | 3.0 | 0.00 | 0.00 | 0.00 | 70 | 1011.1 |
| 20260902083113 | 54 | 322 | 1.0 | 4.0 | 0.00 | 0.00 | 0.00 | 69 | 1011.0 |
| 20260902081554 | 55 | 291 | 0.0 | 3.0 | 0.00 | 0.00 | 0.00 | 69 | 1010.9 |
| 20260902080056 | 55 | 275 | 0.0 | 2.0 | 0.00 | 0.00 | 0.00 | 69 | 1010.9 |
| 20260902074553 | 55 | 248 | 0.0 | 2.0 | 0.00 | 0.00 | 0.00 | 69 | 1010.9 |
| 20260902073056 | 55 | 247 | 0.0 | 2.0 | 0.00 | 0.00 | 0.00 | 68 | 1010.9 |